SCP
0 0 0 0 0 0 0 0 0 0 0 0 0 0 0 0 0 0 0 0 0 0 0 0 0 0 0 0 0 0 0 0 0 0 0 0 0 0 0 0 0 0 0 0
0 0 0 0 0 0 0 0 0 0 0 0 0 0 0 0 0 0 0 0 0 0 0 0 0 0 0 0 0 0 0 0 0 0 0 0 0 0 0 0 0 0 0 0
-0 0 0 0 0 0 0 0 0 0 0 0 0 0 0 0 0 0 0 0 0 0 0 0 0 0 0 0 0 0 0 0 0 0 0 0 0 0 0 0 0 0 0 0
-0 -0 0 0 0 0 0 0 0 0 0 0 0 0 0 0 0 0 0 0 0 0 0 0 0 0 0 0 0 0 0 0 0 0 0 0 0 0 0 0 0 0 0 0
-0 0 0 0 0 0 0 0 0 0 0 0 0 0 0 0 0 0 0 0 0 0 0 0 0 0 0 0 0 0 0 0 0 0 0 0 0 0 0 0 0 0 0 0
0 0 0 0 0 0 0 0 0 0 0 0 0 0 0 0 0 0 0 0 0 0 0 0 0 0 0 0 0 0 0 0 0 0 0 0 0 0 0 0 0 0 0 0
0 0 0 0 0 0 0 0 0 0 0 0 0 0 0 0 0 0 0 0 0 0 0 0 0 0 0 0 0 0 0 0 0 0 0 0 0 0 0 0 0 0 0 0
0 0 0 0 0 0 0 0 0 0 0 0 0 0 0 0 0 0 0 0 0 0 0 0 0 0 0 0 0 0 0 0 0 0 0 0 0 0 0 0 0 0 0 0
0 0 0 0 0 0 0 0 0 0 0 0 0 0 0 0 0 0 0 0 0 0 0 0 0 0 0 0 0 0 0 0 0 0 0 0 0 0 0 0 0 0 0 0
0 0 0 0 0 0 0 0 0 0 0 0 0 0 0 0 0 0 0 0 0 0 0 0 0 0 0 0 0 0 0 0 0 0 0 0 0 0 0 0 0 0 0 0
0 0 0 0 0 0 0 0 0 0 0 0 0 0 0 0 0 0 0 0 0 0 0 0 0 0 0 0 0 0 0 0 0 0 0 0 0 0 0 0 0 0 0 0
0 0 0 0 0 0 0 0 0 0 0 0 0 0 0 0 0 0 0 0 0 0 0 0 0 0 0 0 0 0 0 0 0 0 0 0 0 1 1 1 1 1 1 0
0 0 0 0 0 0 0 0 0 0 0 0 0 0 0 0 0 0 0 0 0 0 0 0 0 0 0 0 0 0 0 0 0 0 0 1 1 1 1 1 1 1 1 1
0 0 0 0 0 0 0 0 0 0 0 0 0 0 0 0 0 0 0 0 0 0 0 0 0 0 0 0 0 0 0 0 0 0 1 1 1 1 1 1 1 1 1 1
0 0 0 0 0 0 0 0 0 0 0 0 0 0 0 0 0 0 0 0 0 0 0 0 0 0 0 0 0 0 0 0 0 1 1 1 1 1 1 1 1 1 1 1
0 0 0 0 0 0 0 0 0 0 0 0 0 0 0 0 0 0 0 0 0 0 0 0 0 0 0 0 0 0 0 1 1 1 1 1 1 1 1 1 1 1 1 1
0 0 0 0 0 0 0 0 0 0 0 0 0 0 0 0 0 0 0 0 0 0 0 0 0 0 1 1 1 1 1 1 1 1 1 1 1 1 1 1 1 1 1 1
0 0 0 0 0 0 0 0 0 0 0 0 0 0 0 0 0 0 0 0 0 0 0 0 0 0 0 0 0 1 1 1 1 1 1 1 1 1 1 1 1 1 1 1
0 0 0 0 0 0 0 0 0 0 0 0 0 0 0 0 0 0 0 0 0 0 0 0 0 0 0 0 0 0 0 0 0 0 1 1 1 1 1 1 1 1 1 1
0 0 0 0 0 0 0 0 0 0 0 0 0 0 0 0 0 0 0 0 0 0 0 0 0 0 0 0 0 0 0 0 0 0 0 0 0 0 0 1 1 1 1 1
0 0 0 0 0 0 0 0 0 0 0 0 0 0 0 0 0 0 0 0 0 0 0 0 0 0 0 0 0 0 0 0 0 0 0 0 0 0 0 0 0 0 0 0
0 0 0 0 0 0 0 0 0 0 0 0 0 0 0 0 0 0 0 0 0 0 0 0 0 0 0 0 0 0 0 0 0 0 0 0 0 0 0 0 0 0 0 0
0 0 0 0 0 0 0 0 0 0 0 0 0 0 0 0 0 0 0 0 0 0 0 0 0 0 0 0 0 0 0 0 0 0 0 0 0 0 0 0 0 0 0 0
0 0 0 0 0 0 0 0 0 0 0 0 0 0 0 0 0 0 0 0 0 0 0 0 0 0 0 0 0 0 0 0 0 0 0 0 0 0 0 0 0 0 0 0
0 0 0 0 0 0 0 0 0 0 0 0 0 0 0 0 0 0 0 0 0 0 0 0 0 0 0 0 0 0 0 0 0 0 0 0 0 0 0 0 0 0 0 0
0 0 0 0 0 0 0 0 0 0 0 0 0 0 0 0 0 0 0 0 0 0 0 0 0 0 0 0 0 0 0 0 0 0 0 0 0 0 0 0 0 0 0 0
Wind_Speed
5 8 6 5 6 8 9 10 9 5 1 5 5 4 1 5 6 7 7 8 9 10 9 9 9 9 9 8 9 10 10 10 8 7 7 6 6 5 4 4 4 3 2 3
8 8 4 6 6 8 9 10 7 1 0 5 5 3 2 4 7 6 8 9 10 10 10 10 10 10 10 10 10 10 10 10 9 7 5 4 4 4 4 4 4 3 3 2
11 5 3 7 9 9 8 7 8 7 2 5 6 4 5 6 6 6 7 7 10 12 12 12 12 12 11 11 11 10 10 10 9 9 6 5 5 4 5 5 5 5 4 3
9 5 5 9 9 9 7 4 5 5 7 2 4 4 5 5 7 8 8 9 10 11 12 12 12 13 13 12 11 10 10 10 10 9 9 9 6 5 5 4 4 6 6 5
8 5 9 11 7 7 5 2 4 6 6 5 1 6 5 5 5 8 10 11 11 12 13 13 13 13 13 12 11 10 10 10 10 10 9 8 7 5 4 4 5 6 6 6
14 9 8 7 2 3 2 5 6 7 7 3 4 6 4 3 1 6 9 11 12 12 13 13 12 12 12 12 11 11 11 11 11 11 10 10 8 6 5 5 5 6 5 6
13 11 7 6 6 5 7 8 6 5 3 3 3 4 4 4 2 5 9 11 12 12 12 13 13 14 14 14 13 13 13 12 12 12 11 11 10 9 8 7 6 6 5 5
11 9 7 7 7 5 6 8 7 8 7 5 2 2 5 4 3 4 8 11 12 13 13 13 14 14 14 15 14 14 14 13 13 13 12 11 11 9 8 8 6 6 5 5
10 7 3 4 4 5 4 6 6 8 7 6 2 1 5 5 6 7 8 10 12 13 14 14 14 15 15 15 15 15 14 13 13 13 12 11 12 10 8 7 8 7 5 5
12 10 6 6 6 3 6 4 4 6 6 7 3 1 3 4 6 8 9 11 12 13 13 14 14 15 14 14 14 15 14 14 14 13 12 11 12 12 10 9 9 7 7 7
11 10 8 8 8 7 6 6 6 5 5 8 5 2 6 2 2 6 9 10 12 13 14 14 13 14 14 14 14 14 14 14 13 13 13 12 11 11 11 10 10 10 9 9
9 8 9 7 2 3 6 6 6 6 5 6 7 2 7 3 1 2 5 7 9 11 12 13 13 13 13 14 14 14 14 14 14 13 12 12 11 11 11 11 11 10 10 10
8 7 9 8 8 7 8 7 7 6 6 6 7 2 7 3 2 2 2 4 6 8 10 11 12 12 13 13 13 13 14 14 13 12 12 12 12 12 12 11 10 10 10 10
7 8 10 8 3 6 8 8 8 8 7 6 7 3 3 3 2 3 2 2 3 5 6 8 9 10 10 10 10 11 12 12 11 11 11 11 11 11 11 10 10 10 10 11
8 9 10 8 4 5 7 7 8 10 9 10 7 5 3 4 4 4 3 3 4 3 3 3 4 5 6 7 7 7 8 8 8 9 9 9 9 8 8 9 9 9 10 11
7 8 8 9 8 8 9 9 9 10 9 9 8 2 6 6 5 6 6 6 6 6 5 4 3 2 1 2 3 4 4 5 5 6 7 6 6 6 7 8 8 8 9 9
9 8 8 10 7 8 12 10 9 8 7 7 7 2 9 8 8 8 8 9 10 9 8 9 7 6 5 4 3 2 2 1 1 2 3 3 3 4 5 6 6 7 7 8
7 9 8 8 7 12 4 3 3 6 4 3 2 8 9 11 11 10 9 10 11 11 11 11 10 10 9 9 7 6 6 5 4 3 2 1 1 1 2 3 4 4 5 6
5 7 8 8 10 10 5 3 3 5 4 3 6 11 14 15 14 12 10 10 11 11 10 10 10 11 11 11 10 10 9 9 8 6 5 5 4 3 2 2 2 3 4 5
6 7 9 8 9 8 1 6 2 4 5 6 9 13 15 13 7 9 9 10 11 10 10 9 10 11 11 10 11 11 11 11 9 8 7 7 6 6 5 4 4 3 3 4
8 7 10 9 9 4 6 5 4 6 3 7 9 12 12 6 7 14 12 11 10 10 10 9 10 10 10 10 10 11 10 9 8 8 8 8 7 6 6 5 4 4 4 5
7 7 6 6 8 2 6 4 2 4 4 6 8 10 10 14 17 15 13 11 10 9 9 10 9 9 8 8 9 10 9 8 7 7 8 8 8 7 6 6 5 5 5 5
3 3 2 2 2 6 3 3 4 3 5 7 9 12 16 18 17 15 13 11 9 8 8 8 9 8 8 8 8 9 7 6 6 6 7 7 7 6 6 6 6 5 4 5
3 0 2 2 3 4 3 3 3 4 6 9 12 15 17 17 16 14 11 9 8 7 7 6 7 7 7 6 7 6 5 5 5 6 6 5 5 6 6 6 6 6 6 7
1 3 4 4 2 4 4 3 6 9 11 13 15 15 16 16 14 12 10 8 6 6 5 5 5 5 5 5 5 5 5 5 5 5 6 6 6 6 6 5 5 6 6 5
2 3 5 3 3 1 5 6 9 12 14 15 16 16 14 13 12 10 8 6 5 5 4 3 4 4 4 4 4 4 4 5 6 6 7 7 7 6 7 7 7 4 5 5
Wind_Direction
234 255 268 332 326 315 310 310 317 352 6 271 278 291 200 176 193 188 184 183 179 175 168 168 168 161 154 159 166 169 169 164 165 161 165 163 163 166 162 154 139 145 111 98
241 243 296 313 297 286 290 298 319 17 124 280 293 279 163 182 195 196 192 189 182 172 171 174 175 172 169 169 169 173 174 171 175 165 165 166 160 176 166 163 156 172 156 156
258 288 316 287 294 303 301 311 331 331 281 221 278 202 167 169 184 191 193 189 183 177 178 179 181 181 179 176 176 177 176 174 178 167 168 160 166 186 175 185 182 186 185 179
259 270 268 284 302 311 314 0 310 295 285 346 317 324 130 170 184 188 187 185 184 180 179 182 188 188 184 180 177 176 178 179 178 179 187 187 194 193 186 196 178 181 195 196
246 253 277 289 317 311 339 333 282 280 283 283 294 309 92 164 191 185 184 185 183 182 183 186 192 190 185 179 177 180 182 183 184 193 194 202 209 205 188 191 175 201 192 202
264 272 276 287 323 303 186 232 231 238 253 298 21 311 49 90 174 171 175 179 180 179 182 186 190 187 185 181 183 183 182 187 188 195 201 210 215 216 208 206 195 206 195 199
240 239 224 229 225 186 226 267 274 268 264 20 61 296 40 72 123 169 170 173 177 179 181 184 186 186 185 186 188 186 186 191 192 198 204 209 215 214 215 221 211 223 213 200
244 241 205 208 249 273 247 283 298 314 326 338 152 338 72 107 130 158 166 168 175 180 183 184 185 185 187 189 191 191 191 194 197 202 207 210 212 218 221 216 231 216 228 218
249 249 169 202 238 267 249 258 307 287 283 289 0 96 125 144 161 165 167 172 179 183 183 184 184 188 190 192 194 195 194 198 202 205 206 211 213 223 228 214 218 222 215 210
254 260 214 175 189 198 286 279 250 276 304 303 300 262 88 152 171 174 177 180 182 183 186 186 186 190 192 194 196 199 199 203 207 208 210 211 213 215 219 221 219 220 212 209
234 246 227 201 228 229 192 213 249 271 299 300 306 52 67 82 190 193 187 186 185 187 188 188 191 192 194 195 195 199 202 206 210 214 214 220 217 215 214 216 215 212 213 204
209 237 248 227 177 287 240 237 230 266 273 268 290 60 92 62 89 204 196 185 189 192 192 192 192 194 196 199 201 203 207 210 213 214 214 217 220 218 217 216 214 211 211 210
176 212 228 205 189 197 221 219 233 257 268 268 278 89 113 97 93 118 185 188 189 192 196 196 196 198 202 205 208 209 210 214 215 213 214 216 218 217 219 222 216 211 211 214
196 224 246 258 241 186 204 206 216 241 261 271 272 299 124 57 58 78 93 147 184 182 191 200 198 201 207 211 212 217 219 217 216 214 216 217 219 219 220 220 218 214 213 215
210 226 234 254 242 228 237 229 218 238 269 284 297 306 45 53 51 54 66 97 116 126 145 177 198 199 203 207 213 219 225 225 222 219 221 223 221 222 223 222 221 218 216 218
213 241 231 233 225 229 241 244 241 248 260 267 274 285 90 97 88 76 70 78 87 86 84 85 87 111 154 192 201 206 218 222 217 222 228 230 226 224 224 222 220 220 222 226
198 217 229 236 210 229 241 242 245 245 248 266 276 119 134 119 90 76 73 75 73 72 71 69 66 62 54 47 57 88 94 110 160 207 232 229 228 233 237 236 229 228 231 232
222 221 233 245 218 244 264 64 276 266 258 249 163 133 130 114 100 82 75 80 78 73 70 67 67 67 65 61 59 62 72 72 72 65 51 42 254 249 255 252 251 250 248 247
237 225 238 244 241 247 184 158 213 238 230 190 160 141 133 133 122 91 78 78 78 75 71 69 68 69 66 66 66 65 64 61 55 49 42 36 31 31 17 345 313 292 277 268
192 224 236 232 256 261 87 108 143 242 207 152 160 157 157 170 163 111 102 92 85 79 74 72 73 70 66 64 67 69 62 57 49 44 44 44 40 33 27 17 356 340 308 291
187 205 229 234 245 254 84 118 188 239 81 140 164 168 174 172 93 118 118 105 98 92 87 80 72 69 66 66 66 67 62 56 49 46 48 46 39 37 32 19 9 354 336 323
212 205 215 236 245 218 112 158 238 52 94 151 158 156 136 113 115 122 120 115 108 101 94 88 81 74 67 66 72 73 65 55 51 48 46 42 34 23 25 17 7 356 341 318
251 317 272 256 62 85 122 83 73 100 123 138 141 134 129 128 127 125 121 117 111 102 95 92 92 85 75 67 65 68 66 55 50 44 39 33 28 24 15 0 353 341 337 323
170 274 264 238 121 110 115 115 126 129 128 129 128 129 129 127 126 125 122 119 114 105 97 92 86 82 77 67 63 61 54 40 32 26 18 11 5 1 7 344 343 341 338 335
22 197 234 236 110 124 111 115 127 124 123 122 122 123 125 125 126 126 124 123 118 112 99 86 81 76 71 65 56 46 37 18 7 0 350 341 341 348 332 328 329 323 331 341
351 306 292 334 68 104 112 123 130 129 127 126 124 121 120 119 119 119 117 118 117 109 101 85 69 58 49 47 48 37 21 4 346 339 338 332 329 333 322 319 313 274 263 242